Dewpoint
69 69 69 70 70 69 68 69 69 70 71 71 71 71 71 70 71 71 70 69 68 69 69 68 68 68 68 67 67 66 60 61
69 69 69 68 68 69 68 68 69 69 70 71 71 71 70 70 70 70 70 69 69 69 68 68 68 67 67 67 66 66 62 59
68 68 68 68 67 68 68 68 68 69 69 70 70 68 69 69 68 69 69 69 69 68 68 68 67 67 66 66 66 62 60 59
67 67 67 68 66 67 67 67 66 66 66 67 67 66 66 66 67 69 69 69 68 68 67 67 66 64 65 65 63 59 59 59
66 66 67 67 66 67 66 66 65 66 66 66 66 66 67 67 66 68 68 68 67 66 66 65 63 61 61 62 60 61 59 59
64 65 66 67 67 66 67 67 67 67 67 66 65 67 66 66 65 65 65 66 65 64 64 63 63 62 61 61 61 60 58 61
61 64 64 65 66 65 66 66 64 67 67 68 67 67 67 66 64 64 64 65 65 64 63 64 64 63 62 62 62 61 60 61
40 59 64 64 64 65 65 66 63 66 66 67 67 66 65 66 64 64 64 65 65 65 64 64 64 63 62 62 61 61 61 60
30 42 58 64 64 64 64 64 64 64 66 67 68 67 65 66 66 64 63 65 65 65 64 64 63 63 62 62 62 61 60 60
27 34 44 60 63 63 63 62 63 62 64 65 67 67 67 66 66 66 65 66 66 65 64 63 63 63 62 62 62 61 61 60
27 31 36 51 60 63 64 63 63 61 62 63 64 67 68 66 65 66 66 66 66 64 64 64 62 62 62 62 62 61 61 60
39 34 34 37 53 60 60 62 63 62 61 62 63 65 66 66 63 65 66 65 65 65 64 63 62 62 61 60 61 61 61 60
45 47 47 38 37 51 54 59 61 61 62 62 62 64 65 64 63 64 65 65 64 64 64 64 63 63 62 61 61 61 61 59
45 45 46 48 42 36 51 54 58 59 61 63 63 64 64 64 63 64 65 64 64 64 63 63 63 63 60 59 57 58 59 60
42 43 44 45 47 48 38 53 55 57 61 63 64 63 63 65 64 64 64 64 63 63 63 62 60 62 61 57 55 52 52 57
40 42 43 44 46 47 47 42 51 56 59 62 63 64 64 64 64 64 64 64 63 63 63 62 62 59 61 61 56 54 53 52
38 40 41 43 46 47 49 45 50 53 57 59 61 63 64 64 64 64 64 63 63 63 62 62 62 60 60 59 59 57 56 55
35 37 38 40 43 46 49 52 49 52 53 58 60 63 63 64 64 64 64 63 63 63 63 62 62 61 60 59 58 57 57 56
33 34 36 37 41 44 48 52 53 55 53 57 59 62 62 63 63 63 63 63 63 63 62 62 62 61 61 60 58 57 56 55
32 33 34 36 40 43 46 51 54 55 56 55 58 61 61 62 63 63 63 63 63 63 62 62 62 62 62 61 59 59 57 56
Wind_Speed
11 14 13 14 18 20 20 19 18 17 17 18 18 18 18 17 17 16 15 14 13 14 15 18 17 16 16 16 17 14 9 12
12 13 15 17 15 16 18 18 18 18 17 16 16 17 17 17 17 16 16 15 15 14 15 16 17 17 16 15 15 11 11 9
11 12 12 13 16 15 15 15 17 17 17 15 16 16 17 18 18 18 16 16 15 15 15 15 16 15 15 14 14 12 9 9
12 12 12 12 14 15 17 16 17 17 18 19 17 17 17 17 17 15 16 16 15 15 16 15 16 14 13 12 14 9 9 8
15 14 13 14 13 11 14 14 17 18 19 19 20 17 15 16 15 15 15 15 14 15 15 16 16 13 14 15 13 9 10 9
14 18 18 16 13 13 14 16 14 14 18 21 19 15 18 18 16 18 17 16 17 17 16 16 16 13 12 14 12 12 9 7
9 15 17 19 20 16 15 18 18 18 17 18 20 19 17 17 18 17 18 17 17 17 16 15 14 15 14 14 15 13 11 9
9 12 17 18 20 23 21 19 19 18 17 19 21 20 19 17 19 19 19 17 17 16 17 17 16 16 16 15 15 13 13 12
9 13 15 19 22 21 20 22 21 20 18 19 18 18 20 18 17 20 19 18 18 16 15 16 16 13 15 15 14 14 14 14
11 10 15 19 21 21 21 21 22 22 20 22 23 22 21 20 17 18 17 15 16 19 17 17 17 15 15 13 14 14 15 14
18 14 13 17 21 22 22 22 22 22 21 23 25 27 27 24 21 17 17 14 16 19 19 18 17 15 15 14 14 14 15 15
20 18 15 16 18 20 21 20 22 23 23 24 26 26 28 24 21 19 19 16 18 17 17 18 18 16 15 14 14 14 14 15
18 20 15 15 17 20 22 22 23 26 25 27 27 25 28 26 22 23 21 22 22 20 15 18 16 15 12 11 11 11 14 17
19 19 19 17 16 19 21 22 24 25 25 25 26 26 27 27 26 25 23 21 20 23 22 14 12 18 11 8 7 12 17 19
21 23 22 21 20 19 22 22 22 24 23 21 24 29 30 29 28 23 21 21 22 23 24 23 19 17 22 12 8 13 10 13
22 23 24 22 21 21 23 26 28 26 24 25 26 29 28 30 27 27 24 22 23 24 23 24 20 18 16 22 19 7 9 7
22 23 24 23 23 23 24 27 25 24 23 26 29 26 26 26 27 27 25 25 24 22 24 25 23 20 20 14 21 19 16 10
24 25 24 25 22 24 27 30 31 26 26 25 25 24 24 28 27 26 27 25 25 24 23 25 24 20 19 22 19 19 19 16
25 26 26 25 26 24 25 31 35 32 29 26 24 22 23 25 27 28 26 25 24 21 22 24 26 23 22 22 20 20 16 19
25 26 27 26 26 26 25 27 28 30 29 25 24 20 22 24 28 26 27 26 24 24 22 23 23 23 25 22 21 19 20 21
Wind_Direction
168 183 182 166 164 166 168 168 168 167 167 164 164 165 169 171 173 173 175 172 162 159 161 155 155 157 160 162 167 187 210 158
186 186 184 187 179 171 171 173 173 172 173 173 171 169 176 178 178 180 179 173 168 168 170 162 161 162 166 168 169 194 223 168
191 187 186 195 188 179 177 177 178 178 176 178 174 189 187 183 193 177 186 177 173 173 174 168 164 165 167 169 170 195 205 210
191 190 191 187 198 184 194 189 190 194 191 184 193 199 195 195 187 182 186 180 176 175 174 169 174 176 178 174 202 205 207 198
192 192 202 195 200 193 199 198 200 197 200 194 196 194 197 201 195 196 199 189 187 182 178 188 198 191 183 197 209 204 217 213
214 196 193 202 198 195 196 198 202 204 204 202 199 196 197 199 202 196 199 193 201 189 189 198 201 212 207 202 214 214 218 203
233 216 213 201 196 200 205 212 201 212 201 200 205 198 199 200 202 200 197 200 200 196 196 196 203 212 214 214 213 217 223 227
267 243 228 219 214 201 202 210 213 202 208 207 206 208 198 198 208 201 204 200 203 201 202 197 202 209 215 219 222 218 224 227
273 251 236 227 223 219 213 208 210 208 206 205 206 213 211 204 197 213 202 200 201 200 205 206 204 203 220 218 228 227 230 225
291 268 251 230 227 223 222 218 211 210 204 207 201 203 211 215 202 205 208 194 197 199 197 205 210 204 214 217 223 229 232 233
302 292 260 247 232 229 223 222 221 216 209 206 205 206 207 208 210 204 197 189 198 204 202 200 210 209 212 209 220 227 236 236
312 303 289 262 244 226 230 225 222 225 217 211 205 205 207 204 216 201 196 193 200 199 205 204 207 206 213 220 225 228 237 236
319 314 310 290 256 233 230 223 223 222 221 219 211 203 205 207 210 209 191 197 202 196 190 195 205 205 193 219 228 228 241 243
322 315 313 305 283 260 235 230 224 229 224 219 215 208 204 206 207 209 195 195 201 196 189 187 187 185 190 193 215 231 236 238
319 314 309 302 296 283 265 234 232 222 226 220 213 211 208 207 203 199 193 193 197 201 198 190 192 192 205 196 210 229 225 220
317 312 309 304 295 281 262 251 228 223 218 217 217 215 214 208 206 197 193 196 200 201 201 200 194 196 201 225 237 258 197 215
319 313 308 306 301 285 269 256 244 225 218 219 218 216 212 207 203 201 197 198 201 197 197 201 204 199 198 203 224 226 230 249
325 318 313 311 304 286 273 261 251 230 221 215 216 214 206 205 201 202 202 200 199 195 198 201 204 204 199 216 208 211 225 226
327 323 314 311 304 290 274 267 250 241 228 216 214 208 207 205 197 196 203 200 197 195 199 202 205 202 208 212 218 223 226 225
327 319 315 315 306 295 282 268 252 238 230 224 217 203 210 211 203 197 199 198 194 194 197 202 202 208 212 213 219 220 226 232